EZY89DB EGCC-EGJJ

Flight info

Callsign EZY89DB
Flight time 0h 51m
Altitude 35000
Route LISTO L612 HON N859 CPT Y321 PEPIS Q41 SAM N63 LELNA
Aircraft A320/M-SDE2E3FGHIJ1RWXYZ/LB1

Departure

Time 2026-05-04 14:04
Airport Manchester Airport (EGCC)

Arrival

Time 2026-05-04 14:56
Airport Jersey Airport (EGJJ)
Time Latitude Longitude Altitude Speed Heading
2026-05-04 13:25 53.36864 -2.28835 255 ft 0 kts 135°
2026-05-04 13:49 53.36873 -2.28850 255 ft 3 kts 135°
2026-05-04 13:49 53.36887 -2.28873 255 ft 3 kts 142°
2026-05-04 13:50 53.36901 -2.28881 255 ft 3 kts 217°
2026-05-04 13:50 53.36917 -2.28856 255 ft 3 kts 225°
2026-05-04 13:50 53.36930 -2.28835 255 ft 0 kts 225°
2026-05-04 13:56 53.36926 -2.28842 255 ft 3 kts 225°
2026-05-04 13:57 53.36895 -2.28893 255 ft 10 kts 224°
2026-05-04 13:57 53.36831 -2.28995 255 ft 16 kts 217°
2026-05-04 13:58 53.36580 -2.28776 255 ft 13 kts 120°
2026-05-04 13:58 53.36473 -2.28578 255 ft 10 kts 134°
2026-05-04 13:58 53.36411 -2.28492 255 ft 14 kts 156°
2026-05-04 13:59 53.36311 -2.28415 255 ft 17 kts 135°
2026-05-04 13:59 53.36218 -2.28256 255 ft 19 kts 135°
2026-05-04 13:59 53.36014 -2.27934 255 ft 20 kts 138°
2026-05-04 14:00 53.35905 -2.27849 255 ft 17 kts 179°
2026-05-04 14:00 53.35633 -2.27894 241 ft 17 kts 186°
2026-05-04 14:00 53.35500 -2.27918 239 ft 16 kts 187°
2026-05-04 14:01 53.35399 -2.28012 237 ft 19 kts 225°
2026-05-04 14:01 53.35299 -2.28175 233 ft 22 kts 226°
2026-05-04 14:01 53.35101 -2.28571 229 ft 22 kts 231°
2026-05-04 14:02 53.34999 -2.28767 227 ft 24 kts 225°
2026-05-04 14:02 53.34882 -2.28974 221 ft 25 kts 227°
2026-05-04 14:02 53.34768 -2.29194 214 ft 23 kts 232°
2026-05-04 14:02 53.34663 -2.29331 211 ft 16 kts 187°
2026-05-04 14:03 53.34556 -2.29298 217 ft 13 kts 146°
2026-05-04 14:03 53.34546 -2.29210 221 ft 6 kts 60°
2026-05-04 14:03 53.34572 -2.29154 219 ft 9 kts 52°
2026-05-04 14:03 53.34684 -2.28924 220 ft 48 kts 51°
2026-05-04 14:04 53.35667 -2.26882 273 ft 165 kts 52°
2026-05-04 14:04 53.36372 -2.25322 697 ft 180 kts 53°
2026-05-04 14:04 53.37121 -2.23544 1301 ft 193 kts 56°
2026-05-04 14:05 53.37889 -2.19193 2198 ft 218 kts 104°
2026-05-04 14:05 53.37052 -2.17086 2084 ft 232 kts 143°
2026-05-04 14:05 53.35529 -2.15847 2027 ft 251 kts 172°
2026-05-04 14:06 53.33805 -2.16170 2018 ft 254 kts 199°
2026-05-04 14:06 53.32129 -2.17139 2010 ft 255 kts 195°
2026-05-04 14:06 53.30388 -2.17688 2010 ft 255 kts 187°
2026-05-04 14:06 53.28628 -2.17968 2195 ft 263 kts 184°
2026-05-04 14:07 53.26765 -2.18178 2835 ft 263 kts 184°
2026-05-04 14:07 53.24978 -2.18379 2974 ft 260 kts 184°
2026-05-04 14:07 53.23162 -2.18602 3243 ft 266 kts 185°
2026-05-04 14:07 53.21319 -2.18846 4185 ft 264 kts 185°
2026-05-04 14:08 53.19460 -2.19110 4185 ft 266 kts 185°
2026-05-04 14:08 53.17628 -2.19387 4065 ft 264 kts 185°
2026-05-04 14:08 53.15785 -2.19658 4014 ft 263 kts 183°
2026-05-04 14:08 53.13961 -2.19426 4005 ft 263 kts 168°
2026-05-04 14:09 53.10486 -2.17192 5354 ft 270 kts 157°
2026-05-04 14:09 53.08748 -2.15994 6300 ft 272 kts 158°
2026-05-04 14:10 53.05190 -2.13568 7995 ft 280 kts 158°
2026-05-04 14:10 53.03380 -2.12328 8841 ft 285 kts 158°
2026-05-04 14:10 53.01539 -2.11063 9669 ft 289 kts 158°
2026-05-04 14:10 52.99657 -2.09771 10125 ft 297 kts 158°
2026-05-04 14:11 52.97671 -2.08404 10621 ft 321 kts 158°
2026-05-04 14:11 52.93381 -2.05447 11718 ft 342 kts 158°
2026-05-04 14:11 52.91170 -2.03926 12470 ft 345 kts 158°
2026-05-04 14:12 52.88935 -2.02393 13239 ft 349 kts 158°
2026-05-04 14:12 52.86714 -2.00870 13966 ft 352 kts 159°
2026-05-04 14:12 52.82138 -1.97740 15305 ft 359 kts 159°
2026-05-04 14:13 52.79823 -1.96165 15975 ft 362 kts 159°
2026-05-04 14:13 52.77481 -1.94575 16620 ft 365 kts 159°
2026-05-04 14:13 52.75129 -1.92973 17264 ft 368 kts 159°
2026-05-04 14:13 52.72755 -1.91356 17926 ft 370 kts 158°
2026-05-04 14:14 52.70359 -1.89728 18552 ft 373 kts 158°
2026-05-04 14:14 52.65529 -1.86462 19683 ft 378 kts 158°
2026-05-04 14:14 52.63087 -1.84812 20248 ft 381 kts 158°
2026-05-04 14:15 52.58157 -1.81474 21388 ft 386 kts 158°
2026-05-04 14:15 52.53153 -1.78094 22491 ft 391 kts 158°
2026-05-04 14:16 52.48083 -1.74681 23580 ft 396 kts 159°
2026-05-04 14:16 52.45538 -1.72972 24035 ft 398 kts 159°
2026-05-04 14:17 52.40382 -1.69513 24856 ft 402 kts 158°
2026-05-04 14:17 52.37781 -1.67773 25250 ft 405 kts 158°
2026-05-04 14:17 52.32493 -1.64468 26011 ft 409 kts 162°
2026-05-04 14:18 52.29812 -1.63050 26376 ft 411 kts 163°
2026-05-04 14:18 52.24317 -1.60348 27119 ft 415 kts 164°
2026-05-04 14:19 52.18742 -1.57573 27850 ft 420 kts 163°
2026-05-04 14:19 52.15953 -1.56140 28206 ft 422 kts 163°
2026-05-04 14:19 52.13148 -1.54681 28542 ft 424 kts 163°
2026-05-04 14:19 52.10329 -1.53209 28893 ft 426 kts 163°
2026-05-04 14:20 52.07503 -1.51733 29200 ft 428 kts 163°
2026-05-04 14:20 52.04666 -1.50253 29507 ft 430 kts 163°
2026-05-04 14:20 52.01801 -1.48766 29838 ft 432 kts 163°
2026-05-04 14:21 51.96063 -1.45804 30439 ft 433 kts 164°
2026-05-04 14:21 51.93186 -1.44326 30703 ft 434 kts 164°
2026-05-04 14:21 51.90305 -1.42852 30934 ft 435 kts 164°
2026-05-04 14:21 51.87409 -1.41375 31147 ft 437 kts 164°
2026-05-04 14:22 51.84504 -1.39895 31400 ft 437 kts 164°
2026-05-04 14:22 51.81612 -1.38419 31699 ft 437 kts 163°
2026-05-04 14:22 51.78715 -1.36943 32000 ft 436 kts 164°
2026-05-04 14:22 51.75836 -1.35479 32371 ft 434 kts 164°
2026-05-04 14:23 51.70081 -1.32555 32979 ft 433 kts 163°
2026-05-04 14:23 51.67210 -1.31096 33229 ft 433 kts 163°
2026-05-04 14:23 51.64332 -1.29636 33499 ft 434 kts 163°
2026-05-04 14:24 51.61448 -1.28173 33781 ft 434 kts 163°
2026-05-04 14:24 51.58570 -1.26716 34029 ft 434 kts 163°
2026-05-04 14:24 51.55688 -1.25262 34262 ft 434 kts 163°
2026-05-04 14:24 51.52809 -1.23812 34553 ft 433 kts 163°
2026-05-04 14:25 51.49926 -1.22635 34803 ft 431 kts 171°
2026-05-04 14:25 51.43955 -1.22362 35037 ft 429 kts 183°
2026-05-04 14:25 51.40987 -1.22617 35019 ft 427 kts 183°
2026-05-04 14:26 51.35053 -1.23131 35018 ft 427 kts 183°
2026-05-04 14:26 51.29133 -1.23618 35005 ft 424 kts 183°
2026-05-04 14:27 51.23255 -1.24085 35004 ft 422 kts 183°
2026-05-04 14:27 51.17443 -1.25288 34964 ft 421 kts 195°
2026-05-04 14:28 51.11741 -1.27727 34947 ft 422 kts 194°
2026-05-04 14:28 51.06057 -1.30114 34928 ft 422 kts 194°
2026-05-04 14:29 50.94795 -1.35144 34920 ft 423 kts 203°
2026-05-04 14:30 50.89539 -1.39311 34919 ft 423 kts 206°
2026-05-04 14:31 50.81642 -1.45594 34928 ft 424 kts 205°
2026-05-04 14:32 50.71081 -1.53967 34942 ft 425 kts 205°
2026-05-04 14:32 50.68437 -1.56058 34791 ft 427 kts 205°
2026-05-04 14:32 50.65774 -1.58165 33978 ft 431 kts 205°
2026-05-04 14:32 50.63088 -1.60286 33055 ft 432 kts 205°
2026-05-04 14:33 50.60415 -1.62392 32632 ft 424 kts 205°
2026-05-04 14:33 50.57802 -1.64451 32053 ft 418 kts 205°
2026-05-04 14:33 50.55223 -1.66485 31513 ft 412 kts 205°
2026-05-04 14:33 50.52677 -1.68488 30973 ft 406 kts 205°
2026-05-04 14:34 50.50176 -1.70448 30454 ft 400 kts 204°
2026-05-04 14:34 50.47697 -1.72388 29908 ft 395 kts 204°
2026-05-04 14:34 50.45254 -1.74300 29373 ft 388 kts 205°
2026-05-04 14:34 50.42863 -1.76167 28881 ft 382 kts 205°
2026-05-04 14:35 50.40496 -1.78014 28393 ft 376 kts 205°
2026-05-04 14:35 50.38171 -1.79830 27901 ft 371 kts 205°
2026-05-04 14:35 50.35882 -1.81619 27438 ft 366 kts 205°
2026-05-04 14:35 50.33619 -1.83384 26977 ft 361 kts 205°
2026-05-04 14:36 50.31382 -1.85123 26548 ft 357 kts 205°
2026-05-04 14:36 50.29168 -1.86837 26096 ft 353 kts 205°
2026-05-04 14:36 50.26983 -1.88521 25674 ft 350 kts 205°
2026-05-04 14:36 50.24806 -1.90202 25260 ft 346 kts 205°
2026-05-04 14:37 50.22663 -1.91862 24857 ft 342 kts 205°
2026-05-04 14:37 50.20544 -1.93503 24456 ft 338 kts 206°
2026-05-04 14:37 50.18443 -1.95131 24051 ft 335 kts 206°
2026-05-04 14:37 50.16371 -1.96736 23653 ft 332 kts 206°
2026-05-04 14:38 50.14311 -1.98326 23205 ft 328 kts 206°
2026-05-04 14:38 50.12300 -1.99870 22824 ft 325 kts 206°
2026-05-04 14:38 50.10274 -2.01425 22419 ft 324 kts 206°
2026-05-04 14:38 50.08254 -2.02975 22026 ft 324 kts 206°
2026-05-04 14:39 50.06237 -2.04526 21627 ft 323 kts 206°
2026-05-04 14:39 50.04225 -2.06073 21217 ft 322 kts 205°
2026-05-04 14:39 50.02189 -2.07636 20809 ft 322 kts 205°
2026-05-04 14:40 49.98173 -2.10549 19989 ft 320 kts 198°
2026-05-04 14:40 49.95980 -2.11435 19606 ft 336 kts 192°
2026-05-04 14:40 49.93639 -2.12228 19220 ft 341 kts 191°
2026-05-04 14:40 49.91348 -2.13007 18775 ft 341 kts 191°
2026-05-04 14:41 49.89035 -2.13795 18375 ft 341 kts 191°
2026-05-04 14:41 49.86719 -2.14583 17938 ft 340 kts 191°
2026-05-04 14:41 49.82123 -2.16151 17128 ft 336 kts 191°
2026-05-04 14:42 49.77578 -2.17702 16335 ft 333 kts 191°
2026-05-04 14:42 49.75327 -2.18468 15964 ft 331 kts 191°
2026-05-04 14:42 49.73079 -2.19234 15580 ft 329 kts 191°
2026-05-04 14:43 49.71602 -2.19737 15326 ft 328 kts 191°
2026-05-04 14:43 49.69389 -2.20548 14937 ft 326 kts 193°
2026-05-04 14:43 49.67208 -2.21475 14543 ft 324 kts 195°
2026-05-04 14:43 49.65053 -2.22460 14158 ft 322 kts 195°
2026-05-04 14:44 49.62913 -2.23460 13770 ft 321 kts 195°
2026-05-04 14:44 49.60783 -2.24447 13351 ft 319 kts 195°
2026-05-04 14:44 49.58662 -2.25415 12972 ft 317 kts 194°
2026-05-04 14:44 49.56557 -2.26367 12664 ft 315 kts 194°
2026-05-04 14:45 49.54461 -2.27308 12287 ft 313 kts 195°
2026-05-04 14:45 49.52377 -2.28239 11897 ft 311 kts 195°
2026-05-04 14:45 49.50303 -2.29159 11520 ft 310 kts 195°
2026-05-04 14:45 49.48234 -2.30072 11149 ft 308 kts 195°
2026-05-04 14:46 49.46180 -2.30976 10781 ft 306 kts 195°
2026-05-04 14:46 49.44145 -2.31863 10453 ft 302 kts 194°
2026-05-04 14:46 49.42157 -2.32668 10326 ft 290 kts 193°
2026-05-04 14:46 49.40245 -2.33405 9960 ft 279 kts 193°
2026-05-04 14:47 49.38377 -2.34112 9323 ft 274 kts 193°
2026-05-04 14:47 49.36532 -2.34811 8648 ft 272 kts 193°
2026-05-04 14:47 49.34707 -2.35502 7986 ft 269 kts 193°
2026-05-04 14:47 49.32896 -2.36189 7332 ft 266 kts 193°
2026-05-04 14:48 49.31175 -2.36844 7190 ft 244 kts 193°
2026-05-04 14:48 49.29700 -2.37836 7059 ft 223 kts 215°
2026-05-04 14:48 49.28543 -2.39342 6707 ft 216 kts 228°
2026-05-04 14:48 49.27958 -2.41416 6386 ft 215 kts 266°
2026-05-04 14:49 49.28194 -2.43633 6156 ft 211 kts 277°
2026-05-04 14:49 49.28230 -2.45918 5522 ft 223 kts 266°
2026-05-04 14:49 49.28254 -2.48322 5098 ft 227 kts 270°
2026-05-04 14:49 49.28175 -2.50711 4706 ft 223 kts 252°
2026-05-04 14:50 49.27474 -2.52770 4370 ft 218 kts 226°
2026-05-04 14:50 49.26249 -2.54082 4032 ft 217 kts 199°
2026-05-04 14:50 49.24765 -2.54380 3706 ft 216 kts 172°
2026-05-04 14:50 49.23366 -2.53616 3406 ft 215 kts 145°
2026-05-04 14:51 49.22360 -2.52002 3077 ft 214 kts 119°
2026-05-04 14:51 49.21677 -2.49936 2728 ft 215 kts 116°
2026-05-04 14:51 49.21014 -2.47893 2489 ft 211 kts 116°
2026-05-04 14:51 49.20374 -2.45923 2341 ft 203 kts 116°
2026-05-04 14:52 49.19764 -2.44055 2201 ft 195 kts 115°
2026-05-04 14:52 49.19206 -2.42211 2072 ft 187 kts 105°
2026-05-04 14:52 49.19052 -2.40269 1984 ft 184 kts 84°
2026-05-04 14:52 49.19217 -2.38340 1932 ft 181 kts 81°
2026-05-04 14:53 49.19374 -2.36507 1962 ft 168 kts 82°
2026-05-04 14:53 49.19521 -2.34760 1948 ft 164 kts 82°
2026-05-04 14:53 49.19663 -2.33040 1812 ft 162 kts 82°
2026-05-04 14:53 49.19804 -2.31348 1642 ft 160 kts 81°
2026-05-04 14:54 49.19946 -2.29666 1420 ft 156 kts 81°
2026-05-04 14:54 49.20080 -2.28069 1219 ft 147 kts 80°
2026-05-04 14:54 49.20204 -2.26581 1037 ft 136 kts 78°
2026-05-04 14:54 49.20324 -2.25165 866 ft 134 kts 79°
2026-05-04 14:55 49.20415 -2.23758 677 ft 132 kts 80°
2026-05-04 14:55 49.20538 -2.22373 484 ft 131 kts 76°
2026-05-04 14:55 49.20666 -2.20979 365 ft 133 kts 76°
2026-05-04 14:55 49.20787 -2.19630 283 ft 116 kts 81°
2026-05-04 14:56 49.20865 -2.18789 284 ft 51 kts 82°
2026-05-04 14:56 49.20882 -2.18434 280 ft 21 kts 111°
2026-05-04 14:56 49.20826 -2.18375 282 ft 6 kts 175°
2026-05-04 14:56 49.20792 -2.18390 287 ft 4 kts 210°
2026-05-04 14:57 49.20761 -2.18429 283 ft 9 kts 221°
2026-05-04 14:57 49.20733 -2.18550 282 ft 16 kts 266°
2026-05-04 14:57 49.20720 -2.18726 282 ft 19 kts 261°
2026-05-04 14:57 49.20697 -2.18947 282 ft 22 kts 263°
2026-05-04 14:58 49.20683 -2.19121 282 ft 13 kts 262°
2026-05-04 14:58 49.20688 -2.19250 281 ft 12 kts 285°
2026-05-04 14:58 49.20707 -2.19363 285 ft 10 kts 284°
2026-05-04 14:58 49.20709 -2.19463 281 ft 9 kts 263°
2026-05-04 14:59 49.20700 -2.19552 281 ft 8 kts 256°
2026-05-04 14:59 49.20678 -2.19626 281 ft 7 kts 236°
2026-05-04 14:59 49.20616 -2.19711 284 ft 4 kts 255°
2026-05-04 15:00 49.20613 -2.19755 281 ft 4 kts 263°
2026-05-04 15:00 49.20610 -2.19793 281 ft 3 kts 264°
2026-05-04 15:00 49.20608 -2.19829 281 ft 6 kts 264°
2026-05-04 15:01 49.20562 -2.19861 281 ft 2 kts 176°
2026-05-04 15:01 49.20557 -2.19861 281 ft 0 kts 176°
2026-05-04 15:01 49.20546 -2.19860 281 ft 3 kts 176°
2026-05-04 15:01 49.20545 -2.19860 281 ft 0 kts 176°